K9PHP Weather Reports


time (UTC)temp
C
wind
direction
speed
KPH
gust
KPH
rain 1hr
cm
rain 24hr
cm
rain mn
cm
humidity
%
barometer
mb
20260503174522 14 252 25.7 38.6 0.00 0.00 0.00 49 1014.8
20260503173002 15 240 11.3 37.0 0.00 0.00 0.00 49 1014.9
20260503171546 15 269 22.5 33.8 0.00 0.00 0.00 51 1015.1
20260503081540 0 9 0.0 1.6 0.00 0.00 0.00 86 1016.2
20260503071505 1 9 0.0 0.0 0.00 0.00 0.00 85 1016.2
20260503054557 1 9 0.0 0.0 0.00 0.00 0.00 84 1016.6
20260503053033 1 9 0.0 0.0 0.00 0.00 0.00 83 1016.8
20260503051515 1 9 0.0 0.0 0.00 0.00 0.00 81 1016.8
20260503050053 1 9 0.0 0.0 0.00 0.00 0.00 80 1016.9
20260503044539 2 9 0.0 0.0 0.00 0.00 0.00 80 1016.8
20260503043012 2 9 0.0 0.0 0.00 0.00 0.00 80 1016.7
20260503041548 2 9 0.0 0.0 0.00 0.00 0.00 79 1016.7
20260503040103 2 9 0.0 0.0 0.00 0.00 0.00 78 1016.6
20260503034535 2 9 0.0 0.0 0.00 0.00 0.00 75 1016.7
20260503033038 3 9 0.0 0.0 0.00 0.00 0.00 73 1016.7
20260503031519 3 9 0.0 0.0 0.00 0.00 0.00 73 1016.9
20260503030054 3 9 0.0 0.0 0.00 0.00 0.00 67 1016.9
20260503030001 3 9 0.0 0.0 0.00 0.00 0.00 68 1016.8
20260503024537 4 9 0.0 0.0 0.00 0.00 0.00 69 1016.9
20260503023021 5 9 0.0 0.0 0.00 0.00 0.00 67 1016.8
20260503021505 5 9 0.0 0.0 0.00 0.00 0.00 64 1016.7
20260503020056 6 9 0.0 0.0 0.00 0.00 0.00 63 1016.5
20260503014527 6 9 0.0 0.0 0.00 0.00 0.00 61 1016.3
20260503013022 7 10 0.0 0.0 0.00 0.00 0.00 59 1016.3
20260503011605 7 10 0.0 0.0 0.00 0.00 0.00 57 1016.1
20260503010031 7 10 0.0 3.2 0.00 0.00 0.00 55 1016.1
20260503004513 8 21 0.0 6.4 0.00 0.00 0.00 54 1016.1
20260503003049 8 12 1.6 9.7 0.00 0.00 0.00 52 1016.0
20260503001537 9 346 3.2 9.7 0.00 0.00 0.00 51 1015.8
20260503000012 9 340 4.8 8.0 0.00 0.00 0.00 56 1015.7
20260502234551 10 344 4.8 14.5 0.00 0.00 0.00 50 1015.7
20260502233033 10 342 6.4 19.3 0.00 0.00 0.00 49 1015.6
20260502231518 10 36 8.0 25.7 0.00 0.00 0.00 47 1015.7
20260502230047 10 46 4.8 19.3 0.00 0.00 0.00 50 1015.8
20260502224529 10 53 11.3 19.3 0.00 0.00 0.00 51 1015.7
20260502223009 10 349 14.5 27.4 0.00 0.00 0.00 48 1015.8
20260502221554 10 350 12.9 19.3 0.00 0.00 0.00 47 1015.7
20260502220015 11 322 17.7 25.7 0.00 0.00 0.00 51 1015.7
20260502214550 11 58 8.0 19.3 0.00 0.00 0.00 50 1015.6
20260502213033 11 34 11.3 25.7 0.00 0.00 0.00 52 1015.6
20260502211514 10 40 14.5 27.4 0.00 0.00 0.00 50 1015.5
20260502210052 11 9 8.0 19.3 0.00 0.00 0.00 51 1015.5
20260502204531 11 9 12.9 29.0 0.00 0.00 0.00 51 1015.6
20260502203012 11 355 8.0 24.1 0.00 0.00 0.00 54 1015.7
20260502201550 11 9 11.3 27.4 0.00 0.00 0.00 52 1015.6
20260502200029 11 85 4.8 22.5 0.00 0.00 0.00 54 1015.7
20260502194510 11 355 9.7 24.1 0.00 0.00 0.00 50 1015.8
20260502193104 10 59 8.0 30.6 0.00 0.00 0.00 53 1015.8
20260502191534 11 323 11.3 32.2 0.00 0.00 0.00 52 1016.0
20260502190013 10 341 14.5 30.6 0.00 0.00 0.00 50 1016.1
20260502184556 10 337 11.3 22.5 0.00 0.00 0.00 53 1016.2
20260502183027 11 320 17.7 29.0 0.00 0.00 0.00 55 1016.3
20260502181508 10 360 9.7 25.7 0.00 0.00 0.00 55 1016.4